Tracking 30995 objects as of 5-Jul-2025
HD Live streaming from Space Station
objects crossing your sky now

CHINASAT 5A (CHINASTAR1)

Track CHINASAT 5A (CHINASTAR1) now!
CHINASAT 5A (CHINASTAR1) is classified as:


NORAD ID: 25354
Int'l Code: 1998-033A
Perigee: 36,135.6 km
Apogee: 36,174.5 km
Inclination: 8.1 °
Period: 1,454.6 minutes
Semi major axis: 42526 km
RCS: 0.003 m2 (small)
Launch date: May 30, 1998
Source: People's Republic of China (PRC)
Launch site: Xichang Space Center, China (XSC)

24 C-band, 24 Ku-band; voice and video communications throughout China and neighboring countries.
Your satellite tracking list
PSLV DEB
Track 1 satellite(s)




NASA's NSSDC Master Catalog

Two Line Element Set (TLE):
1 25354U 98033A   25185.75722819 -.00000274  00000-0  00000-0 0  9998
2 25354   8.1142  64.6763 0004581 120.0550 154.0177  0.98996600 42491
Source of the keplerian elements: AFSPC